Time,TemperatureF,DewpointF,PressureIn,WindDirection,WindDirectionDegrees,WindSpeedMPH,WindSpeedGustMPH,Humidity,HourlyPrecipIn,Conditions,Clouds,dailyrainin,SoftwareType,DateUTC
2013-04-20 00:01:00,46.9,45.3,30.15,NE,45,0.0,0.0,94,0.00,,,0.00,WUHU21623XXSP,2013-04-20 07:01:00,
2013-04-20 00:06:00,46.9,45.6,30.14,NE,45,0.0,0.0,95,0.00,,,0.00,WUHU21623XXSP,2013-04-20 07:06:00,
2013-04-20 00:11:00,46.9,45.6,30.15,NE,45,0.0,0.0,95,0.00,,,0.00,WUHU21623XXSP,2013-04-20 07:11:00,
2013-04-20 00:16:00,46.9,45.6,30.15,NE,45,0.0,0.0,95,0.00,,,0.00,WUHU21623XXSP,2013-04-20 07:16:00,
2013-04-20 00:21:00,46.9,45.6,30.15,NE,45,0.0,0.0,95,0.00,,,0.00,WUHU21623XXSP,2013-04-20 07:21:00,
2013-04-20 00:26:00,46.9,45.6,30.15,NE,45,0.0,0.0,95,0.00,,,0.00,WUHU21623XXSP,2013-04-20 07:26:00,
2013-04-20 00:31:00,46.9,45.6,30.15,NE,45,0.0,0.0,95,0.00,,,0.00,WUHU21623XXSP,2013-04-20 07:31:00,
2013-04-20 00:36:00,46.9,45.6,30.15,NE,45,0.0,0.0,95,0.00,,,0.00,WUHU21623XXSP,2013-04-20 07:36:00,
2013-04-20 00:41:00,46.9,45.6,30.15,NE,45,0.0,0.0,95,0.00,,,0.00,WUHU21623XXSP,2013-04-20 07:41:00,
2013-04-20 00:46:00,46.9,45.6,30.15,NE,45,0.0,0.0,95,0.00,,,0.00,WUHU21623XXSP,2013-04-20 07:46:00,
2013-04-20 00:51:00,46.9,45.6,30.16,NE,45,0.0,0.0,95,0.00,,,0.00,WUHU21623XXSP,2013-04-20 07:51:00,
2013-04-20 00:56:00,46.9,45.6,30.16,NE,45,0.0,0.0,95,0.00,,,0.00,WUHU21623XXSP,2013-04-20 07:56:00,
2013-04-20 01:01:00,46.9,45.6,30.16,NE,45,0.0,0.0,95,0.00,,,0.00,WUHU21623XXSP,2013-04-20 08:01:00,
2013-04-20 01:06:00,46.9,45.6,30.16,NE,45,0.0,0.0,95,0.00,,,0.00,WUHU21623XXSP,2013-04-20 08:06:00,
2013-04-20 01:11:00,46.9,45.6,30.16,NE,45,0.0,0.0,95,0.00,,,0.00,WUHU21623XXSP,2013-04-20 08:11:00,
2013-04-20 01:16:00,46.9,45.6,30.16,NE,45,0.0,0.0,95,0.00,,,0.00,WUHU21623XXSP,2013-04-20 08:16:00,
2013-04-20 01:21:00,46.8,45.4,30.16,NE,45,0.0,0.0,95,0.00,,,0.00,WUHU21623XXSP,2013-04-20 08:21:00,
2013-04-20 01:26:00,46.8,45.4,30.16,NE,45,0.0,0.0,95,0.00,,,0.00,WUHU21623XXSP,2013-04-20 08:26:00,
2013-04-20 01:31:00,46.9,45.4,30.16,NE,45,0.0,0.0,95,0.00,,,0.00,WUHU21623XXSP,2013-04-20 08:31:00,
2013-04-20 01:36:00,46.9,45.6,30.16,NE,45,0.0,0.0,95,0.00,,,0.00,WUHU21623XXSP,2013-04-20 08:36:00,
2013-04-20 01:41:00,46.9,45.6,30.17,NE,45,0.0,0.0,95,0.00,,,0.00,WUHU21623XXSP,2013-04-20 08:41:00,
2013-04-20 01:46:00,46.9,45.6,30.16,NE,45,0.0,0.0,95,0.00,,,0.00,WUHU21623XXSP,2013-04-20 08:46:00,
2013-04-20 01:51:00,46.9,45.6,30.16,SW,225,0.0,0.0,95,0.00,,,0.00,WUHU21623XXSP,2013-04-20 08:51:00,
2013-04-20 01:56:00,46.9,45.6,30.16,SW,225,0.0,0.0,95,0.00,,,0.00,WUHU21623XXSP,2013-04-20 08:56:00,
2013-04-20 02:01:00,46.9,45.6,30.16,SW,225,0.0,0.0,95,0.00,,,0.00,WUHU21623XXSP,2013-04-20 09:01:00,
2013-04-20 02:06:00,46.9,45.6,30.16,SW,225,0.0,0.0,95,0.00,,,0.00,WUHU21623XXSP,2013-04-20 09:06:00,
2013-04-20 02:11:00,46.9,45.6,30.16,SW,225,0.0,0.0,95,0.00,,,0.00,WUHU21623XXSP,2013-04-20 09:11:00,
2013-04-20 02:16:00,46.9,45.6,30.16,SW,225,0.0,0.0,95,0.00,,,0.00,WUHU21623XXSP,2013-04-20 09:16:00,
2013-04-20 02:21:00,46.9,45.6,30.15,SW,225,0.0,0.0,95,0.00,,,0.00,WUHU21623XXSP,2013-04-20 09:21:00,
2013-04-20 02:26:00,46.8,45.4,30.16,SSE,157,0.0,0.0,95,0.00,,,0.00,WUHU21623XXSP,2013-04-20 09:26:00,
2013-04-20 02:31:00,46.8,45.6,30.16,SSE,157,0.0,0.0,95,0.00,,,0.00,WUHU21623XXSP,2013-04-20 09:31:00,
2013-04-20 02:36:00,46.8,45.4,30.15,SSE,157,0.0,0.0,95,0.00,,,0.00,WUHU21623XXSP,2013-04-20 09:36:00,
2013-04-20 02:41:00,46.8,45.4,30.15,West,270,0.0,0.0,95,0.00,,,0.00,WUHU21623XXSP,2013-04-20 09:41:00,
2013-04-20 02:46:00,46.8,45.4,30.15,SSW,202,0.0,0.0,95,0.00,,,0.00,WUHU21623XXSP,2013-04-20 09:46:00,
2013-04-20 02:51:00,46.8,45.4,30.15,SSW,202,0.0,0.0,95,0.00,,,0.00,WUHU21623XXSP,2013-04-20 09:51:00,
2013-04-20 02:56:00,46.8,45.4,30.15,WSW,247,0.0,0.0,95,0.00,,,0.00,WUHU21623XXSP,2013-04-20 09:56:00,
2013-04-20 03:01:00,46.6,45.2,30.15,SSE,157,0.0,0.0,95,0.00,,,0.00,WUHU21623XXSP,2013-04-20 10:01:00,
2013-04-20 03:06:00,46.6,45.2,30.16,NW,315,0.0,0.0,95,0.00,,,0.00,WUHU21623XXSP,2013-04-20 10:06:00,
2013-04-20 03:11:00,46.6,45.2,30.16,NW,315,0.0,0.0,95,0.00,,,0.00,WUHU21623XXSP,2013-04-20 10:11:00,
2013-04-20 03:16:00,46.6,45.2,30.16,NW,315,0.0,0.0,95,0.00,,,0.00,WUHU21623XXSP,2013-04-20 10:16:00,
2013-04-20 03:21:00,46.6,45.2,30.16,NW,315,0.0,0.0,95,0.00,,,0.00,WUHU21623XXSP,2013-04-20 10:21:00,
2013-04-20 03:26:00,46.6,45.2,30.16,WSW,247,0.0,0.0,95,0.00,,,0.00,WUHU21623XXSP,2013-04-20 10:26:00,
2013-04-20 03:31:00,46.6,45.2,30.16,WSW,247,0.0,0.0,95,0.00,,,0.00,WUHU21623XXSP,2013-04-20 10:31:00,
2013-04-20 03:36:00,46.6,45.2,30.16,WSW,247,0.0,0.0,95,0.00,,,0.00,WUHU21623XXSP,2013-04-20 10:36:00,
2013-04-20 03:41:00,46.6,45.2,30.16,WSW,247,0.0,0.0,95,0.00,,,0.00,WUHU21623XXSP,2013-04-20 10:41:00,
2013-04-20 03:46:00,46.6,45.2,30.16,WSW,247,0.0,0.0,95,0.00,,,0.00,WUHU21623XXSP,2013-04-20 10:46:00,
2013-04-20 03:51:00,46.6,45.2,30.17,WSW,247,0.0,0.0,95,0.00,,,0.00,WUHU21623XXSP,2013-04-20 10:51:00,
2013-04-20 03:56:00,46.6,45.2,30.17,WSW,247,0.0,0.0,95,0.00,,,0.00,WUHU21623XXSP,2013-04-20 10:56:00,
2013-04-20 04:01:00,46.4,45.0,30.17,WSW,247,0.0,0.0,95,0.00,,,0.00,WUHU21623XXSP,2013-04-20 11:01:00,
2013-04-20 04:06:00,46.4,45.0,30.17,WSW,247,0.0,0.0,95,0.00,,,0.00,WUHU21623XXSP,2013-04-20 11:06:00,
2013-04-20 04:11:00,46.2,44.9,30.17,WSW,247,0.0,0.0,95,0.00,,,0.00,WUHU21623XXSP,2013-04-20 11:11:00,
2013-04-20 04:16:00,46.2,44.9,30.17,WSW,247,0.0,0.0,95,0.00,,,0.00,WUHU21623XXSP,2013-04-20 11:16:00,
2013-04-20 04:21:00,46.2,44.9,30.17,WSW,247,0.0,0.0,95,0.00,,,0.00,WUHU21623XXSP,2013-04-20 11:21:00,
2013-04-20 04:26:00,46.2,44.9,30.17,WSW,247,0.0,0.0,95,0.00,,,0.00,WUHU21623XXSP,2013-04-20 11:26:00,
2013-04-20 04:31:00,46.2,44.9,30.18,WSW,247,0.0,0.0,95,0.00,,,0.00,WUHU21623XXSP,2013-04-20 11:31:00,
2013-04-20 04:36:00,46.2,44.9,30.18,WSW,247,0.0,0.0,95,0.00,,,0.00,WUHU21623XXSP,2013-04-20 11:36:00,
2013-04-20 04:41:00,46.0,44.9,30.18,WSW,247,0.0,0.0,95,0.00,,,0.00,WUHU21623XXSP,2013-04-20 11:41:00,
2013-04-20 04:46:00,46.0,44.7,30.18,WSW,247,0.0,0.0,95,0.00,,,0.00,WUHU21623XXSP,2013-04-20 11:46:00,
2013-04-20 04:51:00,46.0,44.7,30.18,WSW,247,0.0,0.0,95,0.00,,,0.00,WUHU21623XXSP,2013-04-20 11:51:00,
2013-04-20 04:56:00,46.0,44.7,30.18,WSW,247,0.0,0.0,95,0.00,,,0.00,WUHU21623XXSP,2013-04-20 11:56:00,
2013-04-20 05:01:00,46.0,44.7,30.18,WSW,247,0.0,0.0,95,0.00,,,0.00,WUHU21623XXSP,2013-04-20 12:01:00,
2013-04-20 05:06:00,46.0,44.7,30.18,WSW,247,0.0,0.0,95,0.00,,,0.00,WUHU21623XXSP,2013-04-20 12:06:00,
2013-04-20 05:11:00,46.0,44.7,30.18,WSW,247,0.0,0.0,95,0.00,,,0.00,WUHU21623XXSP,2013-04-20 12:11:00,
2013-04-20 05:16:00,46.0,44.7,30.18,WSW,247,0.0,0.0,95,0.00,,,0.00,WUHU21623XXSP,2013-04-20 12:16:00,
2013-04-20 05:21:00,46.0,44.5,30.18,WSW,247,0.0,0.0,95,0.00,,,0.00,WUHU21623XXSP,2013-04-20 12:21:00,
2013-04-20 05:26:00,45.9,44.5,30.18,WSW,247,0.0,0.0,95,0.00,,,0.00,WUHU21623XXSP,2013-04-20 12:26:00,
2013-04-20 05:31:00,45.7,44.3,30.18,WSW,247,0.0,0.0,95,0.00,,,0.00,WUHU21623XXSP,2013-04-20 12:31:00,
2013-04-20 05:36:00,45.7,44.3,30.19,WSW,247,0.0,0.0,95,0.00,,,0.00,WUHU21623XXSP,2013-04-20 12:36:00,
2013-04-20 05:41:00,45.7,44.3,30.19,WSW,247,0.0,0.0,95,0.00,,,0.00,WUHU21623XXSP,2013-04-20 12:41:00,
2013-04-20 05:46:00,45.7,44.3,30.19,WSW,247,0.0,0.0,95,0.00,,,0.00,WUHU21623XXSP,2013-04-20 12:46:00,
2013-04-20 05:51:00,45.7,44.3,30.19,WSW,247,0.0,0.0,95,0.00,,,0.00,WUHU21623XXSP,2013-04-20 12:51:00,
2013-04-20 05:56:00,45.7,44.3,30.19,WSW,247,0.0,0.0,95,0.00,,,0.00,WUHU21623XXSP,2013-04-20 12:56:00,
2013-04-20 06:01:00,45.7,44.3,30.19,WSW,247,0.0,0.0,95,0.00,,,0.00,WUHU21623XXSP,2013-04-20 13:01:00,
2013-04-20 06:06:00,45.7,44.3,30.19,WSW,247,0.0,0.0,95,0.00,,,0.00,WUHU21623XXSP,2013-04-20 13:06:00,
2013-04-20 06:11:00,45.5,44.1,30.19,WSW,247,0.0,0.0,95,0.00,,,0.00,WUHU21623XXSP,2013-04-20 13:11:00,
2013-04-20 06:16:00,45.7,44.3,30.19,WSW,247,0.0,0.0,95,0.00,,,0.00,WUHU21623XXSP,2013-04-20 13:16:00,
2013-04-20 06:21:00,45.5,44.1,30.20,WSW,247,0.0,0.0,95,0.00,,,0.00,WUHU21623XXSP,2013-04-20 13:21:00,
2013-04-20 06:26:00,45.5,44.1,30.20,WSW,247,0.0,0.0,95,0.00,,,0.00,WUHU21623XXSP,2013-04-20 13:26:00,
2013-04-20 06:31:00,45.5,44.1,30.20,WSW,247,0.0,0.0,95,0.00,,,0.00,WUHU21623XXSP,2013-04-20 13:31:00,
2013-04-20 06:36:00,45.5,44.1,30.19,WSW,247,0.0,0.0,95,0.00,,,0.00,WUHU21623XXSP,2013-04-20 13:36:00,
2013-04-20 06:41:00,45.5,44.1,30.19,WSW,247,0.0,0.0,95,0.00,,,0.00,WUHU21623XXSP,2013-04-20 13:41:00,
2013-04-20 06:46:00,45.5,44.1,30.19,WSW,247,0.0,0.0,95,0.00,,,0.00,WUHU21623XXSP,2013-04-20 13:46:00,
2013-04-20 06:51:00,45.7,44.3,30.19,WSW,247,0.0,0.0,95,0.00,,,0.00,WUHU21623XXSP,2013-04-20 13:51:00,
2013-04-20 06:56:00,45.7,44.3,30.19,WSW,247,0.0,0.0,95,0.00,,,0.00,WUHU21623XXSP,2013-04-20 13:56:00,
2013-04-20 07:01:00,45.7,44.3,30.19,WSW,247,0.0,0.0,95,0.00,,,0.00,WUHU21623XXSP,2013-04-20 14:01:00,
2013-04-20 07:06:00,45.7,44.3,30.19,WSW,247,0.0,0.0,95,0.00,,,0.00,WUHU21623XXSP,2013-04-20 14:06:00,
2013-04-20 07:11:00,45.7,44.3,30.19,WSW,247,0.0,0.0,95,0.00,,,0.00,WUHU21623XXSP,2013-04-20 14:11:00,
2013-04-20 07:16:00,45.5,44.1,30.19,WSW,247,0.0,0.0,95,0.00,,,0.00,WUHU21623XXSP,2013-04-20 14:16:00,
2013-04-20 07:21:00,45.5,44.1,30.19,WSW,247,0.0,0.0,95,0.00,,,0.00,WUHU21623XXSP,2013-04-20 14:21:00,
2013-04-20 07:26:00,45.7,44.3,30.19,WSW,247,0.0,0.0,95,0.00,,,0.00,WUHU21623XXSP,2013-04-20 14:26:00,
2013-04-20 07:31:00,45.7,44.3,30.20,WSW,247,0.0,0.0,95,0.00,,,0.00,WUHU21623XXSP,2013-04-20 14:31:00,
2013-04-20 07:36:00,45.5,44.1,30.20,WSW,247,0.0,0.0,95,0.00,,,0.00,WUHU21623XXSP,2013-04-20 14:36:00,
2013-04-20 07:41:00,45.5,44.1,30.20,WSW,247,0.0,0.0,95,0.00,,,0.00,WUHU21623XXSP,2013-04-20 14:41:00,
2013-04-20 07:46:00,45.5,44.1,30.20,WSW,247,0.0,0.0,95,0.00,,,0.00,WUHU21623XXSP,2013-04-20 14:46:00,
2013-04-20 07:51:00,45.5,44.1,30.20,WSW,247,0.0,0.0,95,0.00,,,0.00,WUHU21623XXSP,2013-04-20 14:51:00,
2013-04-20 07:56:00,45.5,44.1,30.20,WSW,247,0.0,0.0,95,0.00,,,0.00,WUHU21623XXSP,2013-04-20 14:56:00,
2013-04-20 08:01:00,45.5,44.1,30.20,WSW,247,0.0,0.0,95,0.00,,,0.00,WUHU21623XXSP,2013-04-20 15:01:00,
2013-04-20 08:06:00,45.5,44.1,30.20,WSW,247,0.0,0.0,95,0.00,,,0.00,WUHU21623XXSP,2013-04-20 15:06:00,
2013-04-20 08:11:00,45.3,44.0,30.20,WSW,247,0.0,0.0,95,0.00,,,0.00,WUHU21623XXSP,2013-04-20 15:11:00,
2013-04-20 08:16:00,45.3,44.0,30.20,West,270,0.0,0.0,95,0.00,,,0.00,WUHU21623XXSP,2013-04-20 15:16:00,
2013-04-20 08:21:00,45.3,44.0,30.20,West,270,0.0,0.0,95,0.00,,,0.00,WUHU21623XXSP,2013-04-20 15:21:00,
2013-04-20 08:26:00,45.3,44.0,30.20,West,270,0.0,0.0,95,0.00,,,0.00,WUHU21623XXSP,2013-04-20 15:26:00,
2013-04-20 08:31:00,45.3,44.0,30.20,West,270,0.0,0.0,95,0.00,,,0.00,WUHU21623XXSP,2013-04-20 15:31:00,
2013-04-20 08:37:00,45.5,44.1,30.21,West,270,0.0,0.0,95,0.00,,,0.00,WUHU21623XXSP,2013-04-20 15:37:00,
2013-04-20 08:42:00,45.5,44.1,30.21,West,270,0.0,0.0,95,0.00,,,0.00,WUHU21623XXSP,2013-04-20 15:42:00,
2013-04-20 08:47:00,45.5,44.1,30.20,West,270,0.0,0.0,95,0.00,,,0.00,WUHU21623XXSP,2013-04-20 15:47:00,
2013-04-20 08:52:00,45.5,44.1,30.21,West,270,0.0,0.0,95,0.00,,,0.00,WUHU21623XXSP,2013-04-20 15:52:00,
2013-04-20 08:57:00,45.5,44.1,30.21,West,270,0.0,0.0,95,0.00,,,0.00,WUHU21623XXSP,2013-04-20 15:57:00,
2013-04-20 09:01:00,45.5,44.1,30.20,West,270,0.0,0.0,95,0.00,,,0.00,WUHU21623XXSP,2013-04-20 16:01:00,
2013-04-20 09:06:00,45.7,44.1,30.21,West,270,0.0,0.0,95,0.00,,,0.00,WUHU21623XXSP,2013-04-20 16:06:00,
2013-04-20 09:11:00,45.7,44.3,30.21,West,270,0.0,0.0,95,0.00,,,0.00,WUHU21623XXSP,2013-04-20 16:11:00,
2013-04-20 09:16:00,45.7,44.3,30.21,West,270,0.0,0.0,95,0.00,,,0.00,WUHU21623XXSP,2013-04-20 16:16:00,
2013-04-20 09:21:00,45.7,44.3,30.20,West,270,0.0,0.0,95,0.00,,,0.00,WUHU21623XXSP,2013-04-20 16:21:00,
2013-04-20 09:26:00,45.7,44.3,30.20,West,270,0.0,0.0,95,0.00,,,0.00,WUHU21623XXSP,2013-04-20 16:26:00,
2013-04-20 09:31:00,45.7,44.3,30.20,West,270,0.0,0.0,95,0.00,,,0.00,WUHU21623XXSP,2013-04-20 16:31:00,
2013-04-20 09:36:00,46.0,44.7,30.21,West,270,0.0,0.0,95,0.00,,,0.00,WUHU21623XXSP,2013-04-20 16:36:00,
2013-04-20 09:41:00,46.0,44.7,30.21,West,270,0.0,0.0,95,0.00,,,0.00,WUHU21623XXSP,2013-04-20 16:41:00,
2013-04-20 09:46:00,46.0,44.7,30.21,West,270,0.0,0.0,95,0.00,,,0.00,WUHU21623XXSP,2013-04-20 16:46:00,
2013-04-20 09:51:00,46.0,44.7,30.21,West,270,0.0,0.0,95,0.00,,,0.00,WUHU21623XXSP,2013-04-20 16:51:00,
2013-04-20 09:56:00,46.0,44.7,30.22,West,270,0.0,0.0,95,0.00,,,0.00,WUHU21623XXSP,2013-04-20 16:56:00,
2013-04-20 10:01:00,46.2,44.9,30.21,West,270,0.0,0.0,95,0.00,,,0.00,WUHU21623XXSP,2013-04-20 17:01:00,
2013-04-20 10:06:00,46.0,44.7,30.21,West,270,0.0,0.0,95,0.00,,,0.00,WUHU21623XXSP,2013-04-20 17:06:00,
2013-04-20 10:11:00,46.0,44.9,30.22,West,270,0.0,0.0,95,0.00,,,0.00,WUHU21623XXSP,2013-04-20 17:11:00,
2013-04-20 10:16:00,46.2,44.9,30.22,West,270,0.0,0.0,95,0.00,,,0.00,WUHU21623XXSP,2013-04-20 17:16:00,
2013-04-20 10:21:00,46.2,44.9,30.22,West,270,0.0,0.0,95,0.00,,,0.00,WUHU21623XXSP,2013-04-20 17:21:00,
2013-04-20 10:26:00,46.2,44.9,30.22,West,270,0.0,0.0,95,0.00,,,0.00,WUHU21623XXSP,2013-04-20 17:26:00,
2013-04-20 10:31:00,46.2,44.9,30.22,West,270,0.0,0.0,95,0.00,,,0.00,WUHU21623XXSP,2013-04-20 17:31:00,
2013-04-20 10:36:00,46.2,44.9,30.22,West,270,0.0,0.0,95,0.00,,,0.00,WUHU21623XXSP,2013-04-20 17:36:00,
2013-04-20 10:41:00,46.2,44.9,30.22,West,270,0.0,0.0,95,0.00,,,0.00,WUHU21623XXSP,2013-04-20 17:41:00,
2013-04-20 10:46:00,46.2,44.9,30.22,West,270,0.0,0.0,95,0.00,,,0.00,WUHU21623XXSP,2013-04-20 17:46:00,
2013-04-20 10:51:00,46.2,44.9,30.22,West,270,0.0,0.0,95,0.00,,,0.00,WUHU21623XXSP,2013-04-20 17:51:00,
2013-04-20 10:56:00,46.2,44.9,30.22,West,270,0.0,0.0,95,0.00,,,0.00,WUHU21623XXSP,2013-04-20 17:56:00,
2013-04-20 11:01:00,46.2,44.9,30.23,West,270,0.0,0.0,95,0.00,,,0.00,WUHU21623XXSP,2013-04-20 18:01:00,
2013-04-20 11:06:00,46.2,44.9,30.23,West,270,0.0,0.0,95,0.00,,,0.00,WUHU21623XXSP,2013-04-20 18:06:00,
2013-04-20 11:11:00,46.2,44.9,30.23,West,270,0.0,0.0,95,0.00,,,0.00,WUHU21623XXSP,2013-04-20 18:11:00,
2013-04-20 11:16:00,46.2,44.9,30.23,West,270,0.0,0.0,95,0.00,,,0.00,WUHU21623XXSP,2013-04-20 18:16:00,
2013-04-20 11:21:00,46.6,45.2,30.23,West,270,0.0,0.0,95,0.00,,,0.00,WUHU21623XXSP,2013-04-20 18:21:00,
2013-04-20 11:26:00,46.8,45.2,30.23,West,270,0.0,0.0,95,0.00,,,0.00,WUHU21623XXSP,2013-04-20 18:26:00,
2013-04-20 11:31:00,46.9,45.6,30.23,West,270,0.0,0.0,95,0.00,,,0.00,WUHU21623XXSP,2013-04-20 18:31:00,
2013-04-20 11:36:00,47.1,45.8,30.23,West,270,0.0,0.0,95,0.00,,,0.00,WUHU21623XXSP,2013-04-20 18:36:00,
2013-04-20 11:41:00,47.1,45.8,30.23,West,270,0.0,0.0,95,0.00,,,0.00,WUHU21623XXSP,2013-04-20 18:41:00,
2013-04-20 11:46:00,47.3,45.8,30.23,West,270,0.0,0.0,95,0.00,,,0.00,WUHU21623XXSP,2013-04-20 18:46:00,
2013-04-20 11:51:00,47.8,46.5,30.23,West,270,0.0,0.0,95,0.00,,,0.00,WUHU21623XXSP,2013-04-20 18:51:00,
2013-04-20 11:56:00,48.0,46.7,30.23,West,270,0.0,0.0,95,0.00,,,0.00,WUHU21623XXSP,2013-04-20 18:56:00,
2013-04-20 12:01:00,48.0,46.7,30.23,West,270,0.0,0.0,95,0.00,,,0.00,WUHU21623XXSP,2013-04-20 19:01:00,
2013-04-20 12:06:00,48.4,47.0,30.23,SE,135,0.0,0.0,95,0.00,,,0.00,WUHU21623XXSP,2013-04-20 19:06:00,
2013-04-20 12:11:00,48.6,46.7,30.23,SE,135,0.0,0.0,94,0.00,,,0.00,WUHU21623XXSP,2013-04-20 19:11:00,
2013-04-20 12:16:00,48.7,47.1,30.23,SE,135,0.0,0.0,94,0.00,,,0.00,WUHU21623XXSP,2013-04-20 19:16:00,
2013-04-20 12:21:00,48.7,47.1,30.23,SE,135,0.0,0.0,94,0.00,,,0.00,WUHU21623XXSP,2013-04-20 19:21:00,
2013-04-20 12:26:00,48.7,47.1,30.23,SE,135,0.0,0.0,94,0.00,,,0.00,WUHU21623XXSP,2013-04-20 19:26:00,
2013-04-20 12:31:00,48.7,47.1,30.23,SE,135,0.0,0.0,94,0.00,,,0.00,WUHU21623XXSP,2013-04-20 19:31:00,
2013-04-20 12:36:00,48.7,47.1,30.23,SE,135,0.0,0.0,94,0.00,,,0.00,WUHU21623XXSP,2013-04-20 19:36:00,
2013-04-20 12:41:00,48.7,47.1,30.23,SE,135,0.0,0.0,94,0.00,,,0.00,WUHU21623XXSP,2013-04-20 19:41:00,
2013-04-20 12:46:00,48.7,47.1,30.23,SE,135,0.0,0.0,94,0.00,,,0.00,WUHU21623XXSP,2013-04-20 19:46:00,
2013-04-20 12:51:00,48.7,47.1,30.23,SE,135,0.0,0.0,94,0.00,,,0.00,WUHU21623XXSP,2013-04-20 19:51:00,
2013-04-20 12:56:00,48.6,46.9,30.23,SE,135,0.0,0.0,94,0.00,,,0.00,WUHU21623XXSP,2013-04-20 19:56:00,
2013-04-20 13:01:00,48.7,47.1,30.23,SE,135,0.0,0.0,94,0.00,,,0.00,WUHU21623XXSP,2013-04-20 20:01:00,
2013-04-20 13:06:00,48.9,47.2,30.23,SE,135,0.0,0.0,94,0.00,,,0.00,WUHU21623XXSP,2013-04-20 20:06:00,
2013-04-20 13:11:00,49.6,47.6,30.22,SE,135,0.0,0.0,94,0.00,,,0.00,WUHU21623XXSP,2013-04-20 20:11:00,
2013-04-20 13:16:00,50.5,48.1,30.22,SE,135,0.0,0.0,94,0.00,,,0.00,WUHU21623XXSP,2013-04-20 20:16:00,
2013-04-20 13:21:00,51.4,49.7,30.22,SE,135,0.0,0.0,94,0.00,,,0.00,WUHU21623XXSP,2013-04-20 20:21:00,
2013-04-20 13:26:00,51.6,49.6,30.22,SE,135,0.0,0.0,93,0.00,,,0.00,WUHU21623XXSP,2013-04-20 20:26:00,
2013-04-20 13:31:00,51.6,49.6,30.22,SE,135,0.0,0.0,93,0.00,,,0.00,WUHU21623XXSP,2013-04-20 20:31:00,
2013-04-20 13:36:00,51.6,49.3,30.22,SE,135,0.0,0.0,92,0.00,,,0.00,WUHU21623XXSP,2013-04-20 20:36:00,
2013-04-20 13:41:00,51.6,49.3,30.22,SE,135,0.0,0.0,92,0.00,,,0.00,WUHU21623XXSP,2013-04-20 20:41:00,
2013-04-20 13:46:00,51.6,49.3,30.22,SE,135,0.0,0.0,92,0.00,,,0.00,WUHU21623XXSP,2013-04-20 20:46:00,
2013-04-20 13:51:00,51.8,49.5,30.21,NNW,337,0.0,0.0,92,0.00,,,0.00,WUHU21623XXSP,2013-04-20 20:51:00,
2013-04-20 13:56:00,51.8,49.2,30.22,NNW,337,0.0,0.0,91,0.00,,,0.00,WUHU21623XXSP,2013-04-20 20:56:00,
2013-04-20 14:01:00,52.0,49.4,30.21,North,0,0.0,0.0,91,0.00,,,0.00,WUHU21623XXSP,2013-04-20 21:01:00,
2013-04-20 14:06:00,52.3,49.7,30.22,North,0,0.0,0.0,91,0.00,,,0.00,WUHU21623XXSP,2013-04-20 21:06:00,
2013-04-20 14:11:00,52.3,49.7,30.21,North,0,0.0,0.0,91,0.00,,,0.00,WUHU21623XXSP,2013-04-20 21:11:00,
2013-04-20 14:16:00,52.3,49.7,30.21,NNE,22,0.0,0.0,91,0.00,,,0.00,WUHU21623XXSP,2013-04-20 21:16:00,
2013-04-20 14:21:00,52.5,49.9,30.21,NNE,22,0.0,0.0,91,0.00,,,0.00,WUHU21623XXSP,2013-04-20 21:21:00,
2013-04-20 14:26:00,52.9,50.0,30.21,NNE,22,0.0,0.0,90,0.00,,,0.00,WUHU21623XXSP,2013-04-20 21:26:00,
2013-04-20 14:31:00,52.9,50.0,30.21,NNE,22,0.0,0.0,90,0.00,,,0.00,WUHU21623XXSP,2013-04-20 21:31:00,
2013-04-20 14:36:00,53.2,50.4,30.21,NE,45,0.0,0.0,90,0.00,,,0.00,WUHU21623XXSP,2013-04-20 21:36:00,
2013-04-20 14:41:00,53.2,50.4,30.21,NE,45,0.0,0.0,90,0.00,,,0.00,WUHU21623XXSP,2013-04-20 21:41:00,
2013-04-20 14:46:00,52.9,50.0,30.21,NE,45,0.0,0.0,90,0.00,,,0.00,WUHU21623XXSP,2013-04-20 21:46:00,
2013-04-20 14:51:00,52.7,49.5,30.21,NE,45,0.0,0.0,89,0.00,,,0.00,WUHU21623XXSP,2013-04-20 21:51:00,
2013-04-20 14:56:00,52.7,49.5,30.20,NE,45,0.0,0.0,89,0.00,,,0.00,WUHU21623XXSP,2013-04-20 21:56:00,
2013-04-20 15:01:00,53.1,50.2,30.20,NE,45,0.0,0.0,90,0.00,,,0.00,WUHU21623XXSP,2013-04-20 22:01:00,
2013-04-20 15:06:00,54.0,50.4,30.21,SE,135,0.0,0.0,90,0.00,,,0.00,WUHU21623XXSP,2013-04-20 22:06:00,
2013-04-20 15:11:00,54.3,51.4,30.21,SE,135,0.0,0.0,90,0.00,,,0.00,WUHU21623XXSP,2013-04-20 22:11:00,
2013-04-20 15:16:00,54.3,51.1,30.21,SE,135,0.0,0.0,89,0.00,,,0.00,WUHU21623XXSP,2013-04-20 22:16:00,
2013-04-20 15:21:00,54.1,50.9,30.21,SE,135,0.0,0.0,89,0.00,,,0.00,WUHU21623XXSP,2013-04-20 22:21:00,
2013-04-20 15:26:00,54.0,50.8,30.21,SE,135,0.0,0.0,89,0.00,,,0.00,WUHU21623XXSP,2013-04-20 22:26:00,
2013-04-20 15:31:00,54.0,50.8,30.20,SE,135,0.0,0.0,89,0.00,,,0.00,WUHU21623XXSP,2013-04-20 22:31:00,
2013-04-20 15:36:00,54.3,51.1,30.20,SE,135,0.0,0.0,89,0.00,,,0.00,WUHU21623XXSP,2013-04-20 22:36:00,
2013-04-20 15:41:00,54.7,51.3,30.20,SE,135,0.0,0.0,88,0.00,,,0.00,WUHU21623XXSP,2013-04-20 22:41:00,
2013-04-20 15:46:00,54.9,51.0,30.20,SE,135,0.0,0.0,87,0.00,,,0.00,WUHU21623XXSP,2013-04-20 22:46:00,
2013-04-20 15:51:00,54.7,50.8,30.20,SE,135,0.0,0.0,87,0.00,,,0.00,WUHU21623XXSP,2013-04-20 22:51:00,
2013-04-20 15:56:00,54.3,50.5,30.20,SE,135,0.0,0.0,87,0.00,,,0.00,WUHU21623XXSP,2013-04-20 22:56:00,
2013-04-20 16:01:00,53.8,50.0,30.21,South,180,0.0,0.0,87,0.00,,,0.00,WUHU21623XXSP,2013-04-20 23:01:00,
2013-04-20 16:06:00,53.4,49.9,30.20,SW,225,0.0,0.0,88,0.00,,,0.00,WUHU21623XXSP,2013-04-20 23:06:00,
2013-04-20 16:11:00,53.2,49.7,30.20,NW,315,0.0,0.0,88,0.00,,,0.00,WUHU21623XXSP,2013-04-20 23:11:00,
2013-04-20 16:16:00,53.2,49.7,30.20,NW,315,0.0,0.0,88,0.00,,,0.00,WUHU21623XXSP,2013-04-20 23:16:00,
2013-04-20 16:21:00,53.4,49.9,30.20,North,0,0.0,0.0,88,0.00,,,0.00,WUHU21623XXSP,2013-04-20 23:21:00,
2013-04-20 16:26:00,53.4,49.9,30.20,North,0,0.0,0.0,88,0.00,,,0.00,WUHU21623XXSP,2013-04-20 23:26:00,
2013-04-20 16:31:00,53.4,49.9,30.20,North,0,0.0,0.0,88,0.00,,,0.00,WUHU21623XXSP,2013-04-20 23:31:00,
2013-04-20 16:36:00,53.4,49.6,30.20,North,0,0.0,0.0,87,0.00,,,0.00,WUHU21623XXSP,2013-04-20 23:36:00,
2013-04-20 16:41:00,53.2,49.4,30.20,NNW,337,0.0,0.0,86,0.00,,,0.00,WUHU21623XXSP,2013-04-20 23:41:00,
2013-04-20 16:46:00,52.9,48.8,30.20,NNW,337,0.0,0.0,86,0.00,,,0.00,WUHU21623XXSP,2013-04-20 23:46:00,
2013-04-20 16:51:00,52.9,48.8,30.20,NNW,337,0.0,0.0,86,0.00,,,0.00,WUHU21623XXSP,2013-04-20 23:51:00,
2013-04-20 16:56:00,52.9,48.8,30.20,NNW,337,0.0,0.0,86,0.00,,,0.00,WUHU21623XXSP,2013-04-20 23:56:00,
2013-04-20 17:01:00,52.9,48.8,30.20,NNW,337,0.0,0.0,86,0.00,,,0.00,WUHU21623XXSP,2013-04-21 00:01:00,
2013-04-20 17:06:00,52.7,48.6,30.20,NNW,337,0.0,0.0,86,0.00,,,0.00,WUHU21623XXSP,2013-04-21 00:06:00,
2013-04-20 17:11:00,52.5,48.1,30.20,North,0,0.0,0.0,85,0.00,,,0.00,WUHU21623XXSP,2013-04-21 00:11:00,
2013-04-20 17:16:00,52.3,47.9,30.20,North,0,0.0,0.0,85,0.00,,,0.00,WUHU21623XXSP,2013-04-21 00:16:00,
2013-04-20 17:21:00,52.2,47.8,30.20,North,0,0.0,0.0,85,0.00,,,0.00,WUHU21623XXSP,2013-04-21 00:21:00,
2013-04-20 17:26:00,52.0,47.4,30.20,NNW,337,0.0,0.0,84,0.00,,,0.00,WUHU21623XXSP,2013-04-21 00:26:00,
2013-04-20 17:31:00,52.0,47.3,30.20,NNW,337,0.0,0.0,84,0.00,,,0.00,WUHU21623XXSP,2013-04-21 00:31:00,
2013-04-20 17:36:00,51.8,47.1,30.20,NNW,337,0.0,0.0,84,0.00,,,0.00,WUHU21623XXSP,2013-04-21 00:36:00,
2013-04-20 17:41:00,51.6,46.9,30.20,NNW,337,0.0,0.0,84,0.00,,,0.00,WUHU21623XXSP,2013-04-21 00:41:00,
2013-04-20 17:46:00,51.6,46.9,30.20,NNW,337,0.0,0.0,84,0.00,,,0.00,WUHU21623XXSP,2013-04-21 00:46:00,
2013-04-20 17:51:00,51.4,46.7,30.20,NNW,337,0.0,0.0,84,0.00,,,0.00,WUHU21623XXSP,2013-04-21 00:51:00,
2013-04-20 17:56:00,50.9,46.2,30.20,WNW,292,0.0,0.0,84,0.00,,,0.00,WUHU21623XXSP,2013-04-21 00:56:00,
2013-04-20 18:01:00,50.7,46.2,30.20,WNW,292,0.0,0.0,84,0.00,,,0.00,WUHU21623XXSP,2013-04-21 01:01:00,
2013-04-20 18:06:00,50.7,46.0,30.20,NNE,22,0.0,0.0,84,0.00,,,0.00,WUHU21623XXSP,2013-04-21 01:06:00,
2013-04-20 18:11:00,50.7,46.3,30.20,NNE,22,0.0,0.0,85,0.00,,,0.00,WUHU21623XXSP,2013-04-21 01:11:00,
2013-04-20 18:16:00,50.5,46.1,30.20,NNE,22,0.0,0.0,85,0.00,,,0.00,WUHU21623XXSP,2013-04-21 01:16:00,
2013-04-20 18:21:00,50.4,45.6,30.20,NNE,22,0.0,0.0,84,0.00,,,0.00,WUHU21623XXSP,2013-04-21 01:21:00,
2013-04-20 18:26:00,50.2,45.6,30.20,ENE,67,0.0,0.0,85,0.00,,,0.00,WUHU21623XXSP,2013-04-21 01:26:00,
2013-04-20 18:31:00,49.8,45.4,30.20,North,0,0.0,0.0,85,0.00,,,0.00,WUHU21623XXSP,2013-04-21 01:31:00,
2013-04-20 18:36:00,49.8,45.4,30.20,North,0,0.0,0.0,85,0.00,,,0.00,WUHU21623XXSP,2013-04-21 01:36:00,
2013-04-20 18:41:00,49.6,45.2,30.20,North,0,0.0,0.0,85,0.00,,,0.00,WUHU21623XXSP,2013-04-21 01:41:00,
2013-04-20 18:46:00,49.6,45.6,30.20,North,0,0.0,0.0,86,0.00,,,0.00,WUHU21623XXSP,2013-04-21 01:46:00,
2013-04-20 18:51:00,49.3,45.4,30.20,North,0,0.0,0.0,87,0.00,,,0.00,WUHU21623XXSP,2013-04-21 01:51:00,
2013-04-20 18:56:00,49.1,45.4,30.20,North,0,0.0,0.0,87,0.00,,,0.00,WUHU21623XXSP,2013-04-21 01:56:00,
2013-04-20 19:01:00,48.9,45.5,30.19,North,0,0.0,0.0,88,0.00,,,0.00,WUHU21623XXSP,2013-04-21 02:01:00,
2013-04-20 19:06:00,48.7,45.5,30.19,North,0,0.0,0.0,88,0.00,,,0.00,WUHU21623XXSP,2013-04-21 02:06:00,
2013-04-20 19:11:00,48.6,45.7,30.19,North,0,0.0,0.0,89,0.00,,,0.00,WUHU21623XXSP,2013-04-21 02:11:00,
2013-04-20 19:16:00,48.4,45.3,30.20,North,0,0.0,0.0,89,0.00,,,0.00,WUHU21623XXSP,2013-04-21 02:16:00,
2013-04-20 19:21:00,48.4,45.3,30.19,North,0,0.0,0.0,89,0.00,,,0.00,WUHU21623XXSP,2013-04-21 02:21:00,
2013-04-20 19:26:00,48.4,45.3,30.19,North,0,0.0,0.0,89,0.00,,,0.00,WUHU21623XXSP,2013-04-21 02:26:00,
2013-04-20 19:31:00,48.0,45.2,30.19,North,0,0.0,0.0,89,0.00,,,0.00,WUHU21623XXSP,2013-04-21 02:31:00,
2013-04-20 19:36:00,48.0,45.0,30.19,North,0,0.0,0.0,89,0.00,,,0.00,WUHU21623XXSP,2013-04-21 02:36:00,
2013-04-20 19:41:00,48.0,45.0,30.20,North,0,0.0,0.0,89,0.00,,,0.00,WUHU21623XXSP,2013-04-21 02:41:00,
2013-04-20 19:46:00,48.0,45.0,30.20,North,0,0.0,0.0,89,0.00,,,0.00,WUHU21623XXSP,2013-04-21 02:46:00,
2013-04-20 19:51:00,48.0,45.0,30.20,North,0,0.0,0.0,89,0.00,,,0.00,WUHU21623XXSP,2013-04-21 02:51:00,
2013-04-20 19:56:00,48.0,45.0,30.20,North,0,0.0,0.0,89,0.00,,,0.00,WUHU21623XXSP,2013-04-21 02:56:00,
2013-04-20 22:57:00,45.7,43.8,30.22,North,0,0.0,0.0,93,0.00,,,0.00,WUHU21623XXSP,2013-04-21 05:57:00,
2013-04-20 22:58:00,45.7,43.8,30.22,North,0,0.0,0.0,93,0.00,,,0.00,WUHU21623XXSP,2013-04-21 05:58:00,
2013-04-20 23:03:00,45.7,43.8,30.21,North,0,0.0,0.0,93,0.00,,,0.00,WUHU21623XXSP,2013-04-21 06:03:00,
2013-04-20 23:08:00,45.7,43.8,30.22,North,0,0.0,0.0,93,0.00,,,0.00,WUHU21623XXSP,2013-04-21 06:08:00,
2013-04-20 23:13:00,45.5,43.6,30.22,North,0,0.0,0.0,93,0.00,,,0.00,WUHU21623XXSP,2013-04-21 06:13:00,
2013-04-20 23:18:00,45.5,43.6,30.22,North,0,0.0,0.0,93,0.00,,,0.00,WUHU21623XXSP,2013-04-21 06:18:00,
2013-04-20 23:23:00,45.5,43.6,30.22,North,0,0.0,0.0,93,0.00,,,0.00,WUHU21623XXSP,2013-04-21 06:23:00,
2013-04-20 23:28:00,45.5,43.6,30.22,North,0,0.0,0.0,93,0.00,,,0.00,WUHU21623XXSP,2013-04-21 06:28:00,
2013-04-20 23:33:00,45.3,43.4,30.21,NE,45,0.0,0.0,93,0.00,,,0.00,WUHU21623XXSP,2013-04-21 06:33:00,
2013-04-20 23:38:00,45.3,43.4,30.22,NE,45,0.0,0.0,93,0.00,,,0.00,WUHU21623XXSP,2013-04-21 06:38:00,
2013-04-20 23:43:00,45.3,43.4,30.21,NE,45,0.0,0.0,93,0.00,,,0.00,WUHU21623XXSP,2013-04-21 06:43:00,
2013-04-20 23:48:00,45.1,43.3,30.21,NE,45,0.0,0.0,93,0.00,,,0.00,WUHU21623XXSP,2013-04-21 06:48:00,
2013-04-20 23:53:00,45.1,43.3,30.21,NE,45,0.0,0.0,93,0.00,,,0.00,WUHU21623XXSP,2013-04-21 06:53:00,
2013-04-20 23:58:00,45.1,43.3,30.21,NE,45,0.0,0.0,93,0.00,,,0.00,WUHU21623XXSP,2013-04-21 06:58:00,